STARLINK-31266, 59087

Orbit data source: Space-Track

STARLINK-31266, 59087 is a payload satellite owned by SpaceX/Seattle (US) in LEO that was launched on Thu, 29 Feb 2024 UTC via an FALCON 9 launch vehicle from the Air Force Eastern Test Range (AFETR). Payload-class satellites include a variety of spacecraft equipped with specific instruments for various scientific and technological missions. These include communications satellites like Starlink; space stations such as the ISS; scientific satellites like the Hubble; Earth observation satellites from companies like Planet Labs, Umbra, and HawkEye 360; GPS; miniature CubeSats for education and research; and military/defense satellites.

Loading next visibility...
Identifier
59087, 2024-041P
Orbit
LEO
Country
Flag of USUS
Related business
Manufacturer
SpaceX/Seattle
Mission
Operational Commercial Communications
Bus & Motor
STARLINK V2M, Unknown motor
Mass
730 kg wet, ~700 kg dry
Launch date (UTC)
2024-02-29 (2 years ago)
Launch vehicle
FALCON 9
Launch site
Air Force Eastern Test Range (AFETR)
Object type
Payload
Rocket body
Debris
Shape & HBR
Box + 2 Pan, 17.7 m
Radar Cross Section
33.884 m², Large (>1 m²)

Expand to show TLE details & history
Last TLE update: 3 days ago

TLE from 3 days ago
0 STARLINK-31266
1 59087U 24041P   26170.17110621  .00000531  00000-0  28830-4 0  9999
2 59087  43.0022  97.4345 0000962 265.7424  94.3318 15.27576390129848
Epoch: 2026-06-19T04:06Z
TLE epoch observation values (Epoch: 2026-06-19T04:06:23.576Z)
Latitude
-0°
Longitude
128.43235°
Altitude
482.885 km
Speed
7.626 km/s
True Right ascension
06h 29m 44s
True Declination
0° 00' 00"
Sunlit
Object was in daylight at epoch
Visualization orbit readout
Latitude
Unknown
Longitude
Unknown
Altitude
Unknown
Speed
Unknown
Apparent Right ascension
Unknown
Apparent Declination
Unknown
Sunlit
N/A
Visualization observer readout
Local Sidereal Time
21:31:38
Azimuth
Unknown
Elevation
Unknown
Doppler factor
Unknown
Orbital elements
Apogee altitude
485.665 km
Perigee altitude
484.344 km
Semi-major axis
6,863.142 km
Eccentricity
0.0001
Inclination
43.0022°
RAAN
97.4345°
Arg. of periapsis
265.7424°
True anomaly
94.34279°
Mean anomaly
94.3318°
Eccentric anomaly
94.3373°
Mean motion
3.81732 °/min
Orbital period
94.31 mins
BSTAR
0.00002883
Loading maneuver chart data...
Computing Atmospheric mass density...
Loading historical data...
Loading historical data...
Loading historical data...
Loading historical data...
Loading historical data...
Loading historical data...
Loading historical data...

Documentation

Showing up to 5 results
|